[[{"header":{"parameterUnit":"m.s-1","parameterCategory":1,"la1":30.2991,"la2":30.254,"lo1":-89.0895,"lo2":-89.0444,"dy":0.0017,"dx":0.0017,"nx":28,"ny":28,"refTime":"2023-07-19T21:00:00:Z","depth":0,"parameterNumber":2,"parameterNumberName":"U-component_of_WINDS"},"data":[0,0,0,0,0,0,0,0,0,0,0,0,0,0,0,0,0,0,0,0,0,0,0,0,0,0,0,0,0,0,0,0,0,0,0,0,0,0,0,0,0,0,0,0,0,0,0,0,0,0,0,0,0,0,0,0,0,0,-0.9388,-0.9387,0,-0.9322,-0.9321,-0.932,-0.9272,-0.9271,-0.9271,-0.9271,-0.9203,-0.9202,-0.92,0,0,0,0,0,0,0,0,0,0,0,0,0,-0.9472,-0.9471,-0.9388,-0.9387,-0.9386,-0.9322,-0.9321,-0.932,-0.9272,-0.9271,-0.9271,-0.927,-0.9203,-0.9202,-0.92,0,0,0,0,0,0,0,0,0,0,0,0,0,-0.9424,-0.947,-0.9388,-0.9354,-0.9351,-0.9322,-0.9321,-0.932,-0.9272,-0.9271,-0.9271,-0.927,-0.9204,-0.9202,-0.92,-0.92,0,0,-0.9193,-0.9193,0,0,0,0,0,0,0,0,-0.9427,-0.9421,-0.936,-0.9356,-0.9352,-0.9304,-0.9326,-0.928,-0.9272,-0.9302,-0.9271,-0.927,-0.9237,-0.9232,-0.9221,-0.9196,-0.9194,-0.9193,-0.9192,-0.9191,-0.9191,0,0,0,0,0,0,0,-0.943,-0.9423,-0.9362,-0.9359,-0.9354,-0.9343,-0.9335,-0.9317,-0.9274,-0.9299,-0.9296,-0.9288,-0.9235,-0.9224,-0.9219,-0.9193,-0.9193,-0.9191,-0.919,-0.9189,-0.9164,-0.9165,0,0,0,0,0,0,-0.9439,-0.9426,-0.9364,-0.936,-0.9389,-0.9342,-0.9333,-0.932,-0.9274,-0.9266,-0.9289,-0.9286,-0.9227,-0.9222,-0.9217,-0.9214,-0.9191,-0.9189,-0.9188,-0.9164,-0.9165,-0.9165,0,0,0,0,0,0,-0.9441,-0.9433,-0.9366,-0.9392,-0.9383,-0.9341,-0.9327,-0.9319,-0.9308,-0.9266,-0.9258,-0.9285,-0.9227,-0.922,-0.9204,-0.9211,-0.9188,-0.9186,-0.9163,-0.9164,-0.9165,-0.9207,0,0,0,0,0,0,-0.9443,-0.9434,-0.9434,-0.9392,-0.9381,-0.9355,-0.9327,-0.9319,-0.9304,-0.93,-0.9261,-0.9253,-0.9226,-0.9208,-0.9202,-0.9207,-0.9185,-0.9162,-0.9163,-0.9165,-0.9205,-0.9209,-0.9213,0,0,0,0,0,-0.9446,-0.9448,-0.9434,-0.9427,-0.938,-0.9355,-0.9349,-0.9317,-0.9305,-0.9304,-0.9278,-0.9255,-0.9211,-0.9207,-0.92,-0.9204,-0.9162,-0.9163,-0.9164,-0.9203,-0.9208,-0.9213,0,0,0,0,0,0,-0.9491,-0.9442,-0.9426,-0.9414,-0.9389,-0.9347,-0.9345,-0.9324,-0.9302,-0.9299,-0.9261,-0.9252,-0.9241,-0.9221,-0.9217,-0.9202,-0.9183,-0.9184,-0.9215,-0.922,-0.9224,-0.9229,-0.9183,0,0,0,0,0,-0.95,-0.9484,-0.9442,-0.9436,-0.9424,-0.9387,-0.9375,-0.9353,-0.9326,-0.9315,-0.9287,-0.9262,-0.9242,-0.923,-0.921,-0.9202,-0.9193,-0.9202,-0.9206,-0.921,-0.921,-0.9205,-0.9208,-0.917,-0.917,-0.917,0,0,-0.9517,-0.9489,-0.9481,-0.9444,-0.9422,-0.9407,-0.9378,-0.9363,-0.9352,-0.9313,-0.9296,-0.9275,-0.9244,-0.9233,-0.9226,-0.9216,-0.9219,-0.9211,-0.9214,-0.9213,-0.9207,-0.921,-0.9214,-0.9171,-0.917,-0.917,0,0,-0.9541,-0.9518,-0.951,-0.9489,-0.9457,-0.9432,-0.943,-0.9391,-0.9376,-0.9359,-0.9329,-0.9315,-0.9282,-0.9261,-0.9246,-0.9263,-0.9242,-0.9258,-0.9279,-0.9274,-0.9278,-0.928,-0.9286,-0.9289,-0.9259,-0.9259,-0.9259,0,-0.9567,-0.9543,-0.9509,-0.9496,-0.9481,-0.9445,-0.9437,-0.9418,-0.9381,-0.9371,-0.936,-0.9319,-0.9295,-0.9279,-0.9283,-0.9272,-0.9269,-0.9262,-0.928,-0.9282,-0.9284,-0.9289,-0.9292,-0.9261,-0.9261,-0.926,-0.926,0,-0.9577,-0.956,-0.9558,-0.9523,-0.9508,-0.9497,-0.9462,-0.9451,-0.943,-0.9407,-0.939,-0.9361,-0.9334,-0.9329,-0.9308,-0.9309,-0.9304,-0.9287,-0.9268,-0.929,-0.9295,-0.9297,-0.9264,-0.9263,-0.9263,-0.9262,0,0,-0.9627,-0.9573,-0.9573,-0.9557,-0.9518,-0.9505,-0.9494,-0.9467,-0.9459,-0.9434,-0.9423,-0.9397,-0.9381,-0.9364,-0.9341,-0.9337,-0.9353,-0.9321,-0.9319,-0.9328,-0.9352,-0.9365,-0.9368,-0.9338,-0.9339,-0.9339,-0.9355,0,-0.9645,-0.9622,-0.9591,-0.9578,-0.9563,-0.9529,-0.9519,-0.9494,-0.9472,-0.9456,-0.9432,-0.9414,-0.9394,-0.9384,-0.9378,-0.9352,-0.9357,-0.9351,-0.9328,-0.9328,-0.9337,-0.9371,-0.9384,-0.9401,-0.9357,-0.9357,-0.9357,0,-0.9663,-0.964,-0.9626,-0.9589,-0.9581,-0.9573,-0.9547,-0.9532,-0.9504,-0.9488,-0.947,-0.9445,-0.9431,-0.9414,-0.9394,-0.9391,-0.938,-0.9366,-0.9365,-0.9362,-0.9344,-0.9368,-0.9405,-0.9408,-0.9359,-0.9359,-0.9359,0,-0.9701,-0.9667,-0.9654,-0.9641,-0.9598,-0.9593,-0.9574,-0.9545,-0.9532,-0.9509,-0.95,-0.9476,-0.9463,-0.9445,-0.9415,-0.9405,-0.9399,-0.9379,-0.9385,-0.9386,-0.9385,-0.9386,-0.9421,-0.9379,-0.9379,-0.9379,-0.9379,0,-0.9725,-0.9717,-0.9671,-0.9663,-0.9653,-0.9619,-0.9611,-0.9589,-0.9564,-0.9551,-0.9521,-0.951,-0.947,-0.9455,-0.9431,-0.9418,-0.9413,-0.94,-0.9393,-0.9402,-0.9404,-0.9394,-0.9392,-0.9379,-0.9379,-0.9379,-0.9379,0,-0.9766,-0.9734,-0.9718,-0.9678,-0.9668,-0.9663,-0.9629,-0.962,-0.9597,-0.9581,-0.9576,-0.9539,-0.9519,-0.9487,-0.9457,-0.9441,-0.9433,-0.9423,-0.9443,-0.9439,-0.9447,-0.9447,-0.9478,-0.948,-0.9436,-0.9437,-0.9437,0,-0.9783,-0.9776,-0.9736,-0.9725,-0.9708,-0.9691,-0.9677,-0.9643,-0.963,-0.9597,-0.9593,-0.957,-0.9551,-0.952,-0.9491,-0.9468,-0.9457,-0.947,-0.9454,-0.9463,-0.9457,-0.9458,-0.9457,-0.9473,-0.9474,-0.9475,-0.9475,0,-0.9816,-0.9801,-0.9782,-0.9758,-0.9742,-0.9721,-0.9699,-0.9692,-0.9653,-0.964,-0.9619,-0.9604,-0.9574,-0.9553,-0.9526,-0.9507,-0.9485,-0.948,-0.9481,-0.949,-0.9502,-0.9495,-0.9453,-0.948,-0.9479,-0.9479,-0.9479,-0.9478,-0.9846,-0.9838,-0.9809,-0.9789,-0.9769,-0.9749,-0.9738,-0.9714,-0.9696,-0.9669,-0.965,-0.963,-0.9602,-0.9565,-0.9547,-0.9532,-0.9522,-0.9522,-0.9522,-0.9523,-0.9526,-0.9504,-0.9527,-0.9526,-0.9526,-0.9526,-0.9526,0,-0.9878,-0.9857,-0.9839,-0.9809,-0.9793,-0.9774,-0.9748,-0.9736,-0.972,-0.9696,-0.9677,-0.9653,-0.9632,-0.9601,-0.9578,-0.9572,-0.9561,-0.9567,-0.9567,-0.9563,-0.9536,-0.9538,-0.9576,-0.9576,-0.9576,-0.9576,-0.9576,-0.9576,-0.9893,-0.9879,-0.9861,-0.9837,-0.9817,-0.9797,-0.9785,-0.9766,-0.9747,-0.9722,-0.9704,-0.9684,-0.9657,-0.9632,-0.9612,-0.9603,-0.9596,-0.9605,-0.9594,-0.9569,-0.9565,-0.956,-0.9562,-0.9604,-0.9604,-0.9621,-0.9621,-0.9622]},{"header":{"parameterUnit":"m.s-1","parameterCategory":1,"la1":30.2991,"la2":30.254,"lo1":-89.0895,"lo2":-89.0444,"dy":0.0017,"dx":0.0017,"nx":28,"ny":28,"refTime":"2023-07-19T21:00:00:Z","depth":0,"parameterNumber":3,"parameterNumberName":"V-component_of_WINDS"},"data":[0,0,0,0,0,0,0,0,0,0,0,0,0,0,0,0,0,0,0,0,0,0,0,0,0,0,0,0,0,0,0,0,0,0,0,0,0,0,0,0,0,0,0,0,0,0,0,0,0,0,0,0,0,0,0,0,0,0,4.5903,4.5903,0,4.584,4.5839,4.5839,4.5765,4.5764,4.5763,4.5762,4.5694,4.5693,4.5692,0,0,0,0,0,0,0,0,0,0,0,0,0,4.5959,4.5959,4.5904,4.5903,4.5902,4.584,4.5839,4.5838,4.5765,4.5764,4.5763,4.5761,4.5694,4.5693,4.5692,0,0,0,0,0,0,0,0,0,0,0,0,0,4.5919,4.5958,4.5904,4.5858,4.5853,4.584,4.5839,4.5838,4.5766,4.5764,4.5762,4.5761,4.5694,4.5693,4.5692,4.5718,0,0,4.5689,4.5688,0,0,0,0,0,0,0,0,4.5922,4.5917,4.5866,4.5861,4.5856,4.5809,4.5834,4.5798,4.5766,4.5799,4.5762,4.576,4.5733,4.5729,4.572,4.5715,4.5712,4.5688,4.5688,4.5687,4.5687,0,0,0,0,0,0,0,4.5925,4.592,4.5878,4.5865,4.5859,4.584,4.5833,4.5827,4.5776,4.5796,4.579,4.5784,4.573,4.5722,4.5718,4.5711,4.5688,4.5687,4.5687,4.5686,4.5723,4.5724,0,0,0,0,0,0,4.5935,4.5922,4.588,4.5876,4.5886,4.5841,4.5832,4.5826,4.5776,4.5767,4.5786,4.5781,4.5725,4.572,4.5716,4.5742,4.5687,4.5686,4.5685,4.5721,4.5723,4.5725,0,0,0,0,0,0,4.5936,4.5931,4.5883,4.5898,4.589,4.5841,4.5835,4.5825,4.5817,4.5768,4.5758,4.5786,4.5723,4.5717,4.5718,4.5739,4.5686,4.5684,4.5719,4.5722,4.5724,4.5797,0,0,0,0,0,0,4.5938,4.5932,4.5942,4.5899,4.589,4.5887,4.5836,4.5825,4.5815,4.5808,4.5766,4.5758,4.5721,4.572,4.5717,4.5736,4.5684,4.5717,4.572,4.5723,4.5792,4.5801,4.5809,0,0,0,0,0,4.594,4.5964,4.5943,4.5938,4.5901,4.5889,4.5883,4.5842,4.5817,4.5826,4.5795,4.5759,4.5738,4.5721,4.5717,4.5736,4.5716,4.5719,4.5723,4.5788,4.5799,4.5809,0,0,0,0,0,0,4.601,4.5958,4.5934,4.5945,4.5922,4.5876,4.5886,4.5855,4.5838,4.5833,4.5781,4.5772,4.5779,4.5757,4.574,4.5758,4.5721,4.5724,4.5772,4.5783,4.5791,4.5796,4.5683,0,0,0,0,0,4.6027,4.6022,4.5976,4.599,4.598,4.5936,4.5929,4.5899,4.5873,4.5863,4.5831,4.5807,4.5794,4.5787,4.5773,4.5789,4.5778,4.58,4.5809,4.5816,4.5819,4.5826,4.5835,4.5737,4.5737,4.5737,0,0,4.6062,4.6032,4.6032,4.6004,4.5983,4.5978,4.5928,4.5925,4.5921,4.5862,4.5861,4.5838,4.5806,4.5815,4.5817,4.5797,4.5844,4.5821,4.5827,4.5826,4.5831,4.584,4.5848,4.574,4.574,4.5739,0,0,4.6122,4.61,4.6109,4.609,4.6059,4.6029,4.6032,4.5991,4.5974,4.5972,4.5928,4.5922,4.5902,4.5882,4.5869,4.5923,4.5889,4.592,4.5964,4.5972,4.5979,4.5986,4.6005,4.6013,4.5923,4.5923,4.5924,0,4.6169,4.6161,4.6118,4.6118,4.6107,4.6055,4.6064,4.6046,4.6012,4.6005,4.5984,4.5958,4.5933,4.5936,4.595,4.5941,4.5942,4.5924,4.5982,4.5988,4.5993,4.6011,4.6019,4.5927,4.5927,4.5927,4.5926,0,4.622,4.6215,4.6227,4.6196,4.6186,4.6191,4.6148,4.6143,4.6115,4.6087,4.6087,4.6055,4.6034,4.6033,4.6004,4.6032,4.6021,4.5992,4.5953,4.6007,4.6023,4.603,4.5933,4.5932,4.593,4.5929,0,0,4.6322,4.6269,4.6274,4.626,4.6222,4.6217,4.622,4.62,4.6197,4.6176,4.6176,4.6161,4.6133,4.6119,4.6088,4.6094,4.614,4.6064,4.6062,4.6079,4.6169,4.6191,4.62,4.6117,4.6118,4.6119,4.6171,0,4.6376,4.6378,4.634,4.6352,4.6347,4.6297,4.6299,4.6276,4.6251,4.6243,4.6214,4.6204,4.6169,4.616,4.6164,4.6134,4.6157,4.6129,4.6116,4.6117,4.6126,4.6208,4.6232,4.6282,4.6177,4.6178,4.6179,0,4.6439,4.6422,4.6435,4.6397,4.6394,4.6397,4.6376,4.6369,4.6342,4.6323,4.6307,4.6272,4.6271,4.6236,4.6233,4.6215,4.6208,4.6192,4.6193,4.619,4.6151,4.6207,4.6297,4.6305,4.6188,4.6188,4.6187,0,4.6513,4.6493,4.6498,4.6487,4.6444,4.6447,4.6429,4.64,4.6391,4.6373,4.6367,4.6349,4.6338,4.6325,4.6285,4.6263,4.6288,4.6249,4.6271,4.6273,4.6278,4.6279,4.6368,4.6274,4.6274,4.6274,4.6274,0,4.6576,4.6586,4.6531,4.6534,4.6543,4.6498,4.6508,4.6485,4.646,4.6457,4.6413,4.6411,4.636,4.6352,4.6321,4.6324,4.632,4.6304,4.6295,4.6308,4.631,4.6302,4.6297,4.6276,4.6276,4.6275,4.6275,0,4.666,4.6623,4.6625,4.6585,4.6575,4.6583,4.6548,4.6549,4.6521,4.6518,4.6515,4.6471,4.646,4.6419,4.6398,4.6377,4.6389,4.6373,4.6399,4.6394,4.6419,4.6417,4.6506,4.6516,4.6416,4.6417,4.6418,0,4.6703,4.6709,4.667,4.6666,4.665,4.6643,4.6634,4.6591,4.6583,4.6553,4.6558,4.6543,4.6529,4.6513,4.6478,4.6462,4.6445,4.6477,4.6442,4.6454,4.6445,4.6445,4.6446,4.6485,4.6486,4.6487,4.6488,0,4.6784,4.6766,4.6755,4.6739,4.6729,4.6714,4.6696,4.6694,4.6646,4.6639,4.6628,4.6617,4.6596,4.6582,4.656,4.654,4.6506,4.65,4.6504,4.6517,4.6531,4.6524,4.642,4.6498,4.6497,4.6496,4.6496,4.6495,4.6848,4.6852,4.6825,4.6815,4.6797,4.6781,4.678,4.6753,4.6743,4.6723,4.6698,4.6689,4.6662,4.6629,4.6612,4.6605,4.6586,4.6592,4.6594,4.6596,4.6602,4.6533,4.66,4.66,4.66,4.6599,4.6599,0,4.6927,4.6907,4.6898,4.6875,4.6867,4.6837,4.6816,4.6811,4.6804,4.6782,4.677,4.6757,4.6743,4.6709,4.6691,4.6692,4.6676,4.6689,4.6688,4.6684,4.662,4.6618,4.6702,4.6702,4.6702,4.6702,4.6702,4.6702,4.6967,4.6971,4.695,4.6945,4.6925,4.6918,4.6908,4.6893,4.6875,4.6863,4.6852,4.683,4.6803,4.6783,4.677,4.6759,4.6755,4.6773,4.6758,4.6698,4.6689,4.6679,4.6677,4.6773,4.6773,4.6823,4.6824,4.6824]}]]